Weather History for Glendale Luke AFB, AZ

Change the Weather History Date:

Wednesday, July 24, 2013

  Actual Average Record
Temperature  
Mean Temperature 96 °F -  
Max Temperature 105 °F 107 °F 115 °F (1931)
Min Temperature 86 °F 75 °F 64 °F (1973)
Cooling Degree Days 30    
Growing Degree Days 46 (Base 50)    
Moisture  
Dew Point 63 °F    
Average Humidity 35    
Maximum Humidity 48    
Minimum Humidity 24    
Precipitation  
Precipitation 0.00 in - - ()
Sea Level Pressure  
Sea Level Pressure 29.78 in    
Wind  
Wind Speed 7 mph (SSW)    
Max Wind Speed 13 mph    
Max Gust Speed 21 mph    
Visibility 10 miles    
Events      
Averages and records for this station are not official NWS values.
T = Trace of Precipitation, MM = Missing Value Source: NWS Daily Summary

Daily Weather History Graph

Daily Weather History Graph

Search for Another Location

Airport:

Trip Planner

Search our weather history database for the weather conditions in past years. The results will help you decide how hot, cold, wet, or windy it might be!

Date:

Astronomy

Jul. 24, 2013 Rise Set
Actual Time 5:36 AM MST 7:35 PM MST
Civil Twilight 5:08 AM MST 8:02 PM MST
Nautical Twilight 4:35 AM MST 8:36 PM MST
Astronomical Twilight 3:59 AM MST 9:12 PM MST
Moon 8:55 PM MST (7/24) 7:51 AM MST (7/24)
Length of Visible Light 14h 53m
Length of Day
13h 58m
Waning Gibbous, 94% of the Moon is Illuminated
Jul 24
Waning Gibbous
Jul 29
Last Quarter
Aug 6
New
Aug 14
First Quarter
Aug 20
Full

Hourly Weather History & Observations

Time (MST) Temp. Heat Index Dew Point Humidity Pressure Visibility Wind Dir Wind Speed Gust Speed Precip Events Conditions
12:48 AM 91.4 °F 92.1 °F 62.6 °F 38% 29.85 in 10.0 mi SW 4.6 mph - N/A   Mostly Cloudy
12:58 AM 90.9 °F 92.0 °F 63.5 °F 40% 29.85 in 10.0 mi SW 5.8 mph - N/A   Mostly Cloudy
1:08 AM 89.6 °F 91.1 °F 64.4 °F 43% 29.84 in 10.0 mi SW 6.9 mph - N/A   Mostly Cloudy
1:58 AM 87.6 °F 89.7 °F 65.7 °F 48% 29.84 in 10.0 mi Calm Calm - N/A   Clear
2:58 AM 89.8 °F 91.0 °F 63.7 °F 42% 29.80 in 10.0 mi South 4.6 mph - N/A   Clear
3:58 AM 87.6 °F 89.1 °F 64.2 °F 46% 29.78 in 10.0 mi SSW 10.4 mph - N/A   Clear
4:58 AM 87.3 °F 88.6 °F 63.9 °F 46% 29.81 in 10.0 mi SSW 11.5 mph - N/A   Mostly Cloudy
5:58 AM 86.0 °F 87.3 °F 64.4 °F 48% 29.81 in 10.0 mi SW 9.2 mph - N/A   Partly Cloudy
6:58 AM 87.4 °F 88.8 °F 64.6 °F 46% 29.82 in 10.0 mi West 5.8 mph - N/A   Partly Cloudy
7:58 AM 89.6 °F 90.8 °F 63.5 °F 42% 29.83 in 10.0 mi Variable 1.2 mph - N/A   Clear
8:58 AM 91.9 °F 93.7 °F 64.2 °F 40% 29.83 in 10.0 mi South 5.8 mph - N/A   Clear
9:58 AM 93.7 °F 95.8 °F 64.8 °F 38% 29.83 in 10.0 mi South 8.1 mph - N/A   Partly Cloudy
10:58 AM 94.8 °F 96.7 °F 64.2 °F 36% 29.82 in 10.0 mi South 5.8 mph - N/A   Partly Cloudy
11:58 AM 99.0 °F 100.5 °F 63.0 °F 30% 29.81 in 10.0 mi SSW 8.1 mph - N/A   Partly Cloudy
12:58 PM 101.8 °F 104.3 °F 62.6 °F 28% 29.77 in 10.0 mi SW 9.2 mph 18.4 mph N/A   Partly Cloudy
1:58 PM 102.6 °F 104.8 °F 62.2 °F 27% 29.75 in 10.0 mi WSW 10.4 mph 19.6 mph N/A   Clear
2:58 PM 103.6 °F 106.0 °F 62.1 °F 26% 29.73 in 10.0 mi South 8.1 mph 17.3 mph N/A   Partly Cloudy
3:58 PM 104.5 °F 107.6 °F 62.8 °F 26% 29.70 in 10.0 mi South 12.7 mph 20.7 mph N/A   Scattered Clouds
4:58 PM 105.1 °F 107.8 °F 62.1 °F 25% 29.69 in 10.0 mi SW 9.2 mph - N/A   Scattered Clouds
5:58 PM 104.5 °F 106.2 °F 60.6 °F 24% 29.68 in 10.0 mi SSW 12.7 mph - N/A   Scattered Clouds
6:58 PM 103.3 °F 104.1 °F 60.4 °F 24% 29.68 in 10.0 mi SSW 12.7 mph - N/A   Scattered Clouds
7:58 PM 100.9 °F 102.1 °F 61.5 °F 27% 29.70 in 10.0 mi Variable 4.6 mph - N/A   Mostly Cloudy
8:58 PM 100.0 °F 101.8 °F 62.2 °F 29% 29.73 in 10.0 mi SW 4.6 mph - N/A   Mostly Cloudy
9:58 PM 99.0 °F 100.0 °F 61.2 °F 29% 29.74 in 10.0 mi SSW 9.2 mph - N/A   Mostly Cloudy
10:58 PM 95.4 °F 97.1 °F 63.3 °F 35% 29.76 in 10.0 mi SW 8.1 mph - N/A   Partly Cloudy
11:58 PM 94.3 °F 95.8 °F 63.9 °F 36% 29.77 in 10.0 mi West 4.6 mph - N/A   Clear